Probability
0 0 0 0 0 0 0 0 0 0 0 0 0 0 0 0 0 0 0 0 0 0 0 0 0 0 0 0 0 0 0 0 0 0 0 0 0 0
0 0 0 0 0 0 0 0 0 0 0 0 0 0 0 0 0 0 0 0 0 0 0 0 0 0 0 0 0 0 0 0 0 0 0 0 0 0
0 0 0 0 0 0 0 0 0 0 0 0 0 0 0 0 0 0 0 0 0 0 0 0 0 0 0 0 0 0 0 0 0 0 0 0 0 0
0 0 0 0 0 0 0 0 0 0 0 0 0 0 0 0 0 0 0 0 0 0 0 0 0 0 0 0 0 0 0 0 0 0 0 0 0 0
0 0 0 0 0 0 0 0 0 0 0 0 0 0 0 0 0 0 0 0 0 0 0 0 0 0 0 0 0 0 0 0 0 0 0 0 0 0
0 0 0 0 0 0 0 0 0 0 0 0 0 0 0 0 0 0 0 0 0 0 0 0 0 0 0 0 0 0 0 0 0 0 0 0 0 0
0 0 0 0 0 0 0 0 0 0 0 0 0 0 0 0 0 0 0 0 0 0 0 0 0 0 0 0 0 0 0 0 0 0 0 0 0 0
0 0 0 0 0 0 0 0 0 0 0 0 0 0 0 0 0 0 0 0 0 0 0 0 0 0 0 0 0 0 0 0 0 0 0 0 0 0
0 0 0 0 0 0 0 0 0 0 0 0 0 0 0 0 0 0 0 0 0 0 0 0 0 0 0 0 0 0 0 0 0 0 0 0 0 0
0 0 0 0 0 0 0 0 0 0 0 0 0 0 0 0 0 0 0 0 0 0 0 0 0 0 0 0 0 0 0 0 0 0 0 0 0 0
0 0 0 0 0 0 0 0 0 0 0 0 0 0 0 0 0 0 0 0 0 0 0 0 0 0 0 0 0 0 0 0 0 0 0 0 0 0
0 0 0 0 0 0 0 0 0 0 0 0 0 0 0 0 0 0 0 0 0 0 0 0 0 0 0 0 0 0 0 0 0 0 0 0 0 0
0 0 0 0 0 0 0 0 0 0 0 0 0 0 0 0 0 0 0 0 0 0 0 0 0 0 0 0 0 0 0 0 0 0 0 0 0 0
0 0 0 0 0 0 0 0 0 0 0 0 0 0 0 0 0 0 0 0 0 0 0 0 0 0 0 0 0 0 0 0 0 0 0 0 0 0
0 0 0 0 0 0 0 0 0 0 0 0 0 0 0 0 0 0 0 0 0 0 0 0 0 0 0 0 0 0 0 0 0 0 0 0 0 0
0 0 0 0 0 0 0 0 0 0 0 0 0 0 0 0 0 0 0 0 0 0 0 0 0 0 0 0 0 0 0 0 0 0 0 0 0 0
0 0 0 0 0 0 0 0 0 0 0 0 0 0 0 0 0 0 0 0 0 0 0 0 0 0 0 0 0 0 0 0 0 0 0 0 0 0
0 0 0 0 0 0 0 0 0 0 0 0 0 0 0 0 0 0 0 0 0 0 0 0 0 0 0 0 0 0 0 0 0 0 0 0 0 0
0 0 0 0 0 0 0 0 0 0 0 0 0 0 0 0 0 0 0 0 0 0 0 0 0 0 0 0 0 0 0 0 0 0 0 0 0 0
0 0 0 0 0 0 0 0 0 0 0 0 0 0 0 0 0 0 0 0 0 0 0 0 0 0 0 0 0 0 0 0 0 0 0 0 0 0
0 0 0 0 0 0 0 0 0 0 0 0 0 0 0 0 0 0 0 0 0 0 0 0 0 0 0 0 0 0 0 0 0 0 0 0 0 0
0 0 0 0 0 0 0 0 0 0 0 0 0 0 0 0 0 0 0 0 0 0 0 0 0 0 0 0 0 0 0 0 0 0 0 0 0 0
0 0 0 0 0 0 0 0 0 0 0 0 0 0 0 0 0 0 0 0 0 0 0 0 0 0 0 0 0 0 0 0 0 0 0 0 0 0
Height
5724 5723 5722 5721 5720 5718 5716 5715 5714 5712 5711 5709 5706 5704 5702 5699 5696 5694 5692 5689 5686 5684 5681 5678 5675 5672 5669 5666 5663 5660 5657 5654 5651 5648 5645 5642 5639 5636
5713 5712 5711 5709 5708 5706 5705 5703 5701 5699 5698 5696 5694 5691 5689 5686 5683 5681 5678 5676 5673 5670 5668 5665 5662 5659 5656 5653 5650 5647 5644 5640 5637 5634 5631 5628 5625 5622
5701 5700 5698 5697 5695 5693 5692 5690 5688 5686 5684 5683 5680 5678 5675 5673 5670 5667 5665 5662 5660 5657 5654 5651 5648 5645 5642 5639 5636 5632 5629 5626 5623 5619 5616 5613 5610 5608
5689 5687 5686 5684 5682 5680 5678 5676 5674 5672 5670 5669 5666 5664 5661 5659 5656 5653 5650 5648 5645 5643 5640 5637 5634 5631 5628 5625 5621 5618 5614 5611 5608 5604 5601 5598 5595 5592
5676 5674 5672 5671 5669 5666 5664 5662 5660 5657 5655 5653 5652 5649 5647 5644 5642 5639 5636 5634 5631 5628 5625 5623 5619 5616 5613 5610 5606 5603 5599 5596 5593 5589 5586 5583 5580 5577
5663 5661 5659 5657 5655 5652 5650 5648 5645 5643 5640 5638 5637 5634 5632 5629 5627 5624 5622 5619 5616 5613 5610 5607 5604 5601 5598 5595 5591 5588 5584 5581 5577 5574 5571 5568 5565 5562
5649 5647 5645 5643 5641 5639 5636 5633 5631 5628 5626 5623 5622 5619 5617 5615 5612 5609 5607 5604 5601 5598 5595 5592 5589 5586 5583 5579 5576 5572 5569 5566 5562 5559 5556 5552 5550 5547
5635 5633 5631 5629 5627 5624 5622 5619 5616 5614 5611 5609 5606 5604 5602 5599 5596 5593 5591 5589 5586 5583 5579 5576 5573 5570 5567 5564 5560 5557 5554 5550 5547 5543 5540 5538 5535 5532
5621 5619 5617 5614 5612 5610 5607 5605 5602 5599 5596 5594 5591 5588 5586 5583 5580 5578 5574 5571 5569 5566 5562 5560 5557 5554 5551 5547 5544 5541 5538 5535 5532 5528 5526 5523 5520 5518
5606 5604 5602 5600 5597 5595 5593 5590 5587 5584 5581 5578 5576 5573 5570 5567 5564 5561 5558 5555 5553 5549 5546 5544 5541 5538 5535 5532 5528 5525 5522 5519 5516 5514 5511 5509 5506 5504
5591 5589 5587 5585 5582 5580 5577 5575 5572 5569 5565 5562 5559 5557 5554 5550 5547 5544 5542 5539 5537 5535 5530 5528 5526 5523 5519 5516 5513 5509 5506 5504 5501 5499 5497 5494 5492 5490
5577 5574 5572 5569 5566 5563 5561 5558 5556 5553 5550 5547 5544 5541 5537 5534 5531 5528 5526 5523 5520 5519 5516 5513 5510 5507 5505 5502 5498 5495 5492 5489 5487 5485 5482 5480 5478 5476
5562 5560 5557 5554 5551 5548 5545 5542 5539 5536 5534 5531 5528 5525 5522 5519 5516 5513 5510 5508 5505 5503 5501 5498 5495 5491 5489 5487 5484 5480 5477 5475 5473 5471 5468 5467 5465 5463
5547 5544 5541 5538 5535 5532 5529 5526 5523 5520 5518 5515 5512 5509 5507 5504 5501 5498 5495 5492 5490 5488 5485 5482 5480 5477 5474 5472 5470 5467 5463 5461 5459 5457 5455 5453 5451 5449
5530 5528 5525 5522 5519 5516 5514 5510 5507 5504 5502 5499 5496 5494 5491 5488 5486 5483 5481 5478 5475 5473 5470 5468 5465 5463 5460 5457 5455 5453 5450 5448 5445 5443 5442 5440 5438 5436
5514 5512 5509 5506 5504 5501 5498 5495 5492 5489 5486 5484 5481 5479 5476 5473 5471 5468 5466 5464 5461 5459 5455 5453 5450 5448 5445 5443 5441 5439 5437 5435 5433 5430 5428 5427 5425 5423
5498 5496 5494 5491 5489 5486 5483 5481 5478 5475 5472 5469 5466 5464 5461 5459 5456 5454 5451 5449 5447 5445 5442 5438 5436 5433 5431 5430 5428 5426 5424 5422 5420 5418 5416 5415 5413 5411
5484 5482 5479 5477 5474 5472 5469 5467 5464 5461 5457 5454 5452 5449 5447 5444 5442 5439 5437 5434 5432 5430 5428 5425 5423 5420 5419 5417 5416 5413 5411 5410 5408 5406 5405 5403 5402 5400
5469 5467 5465 5463 5460 5458 5455 5452 5450 5446 5443 5441 5438 5435 5433 5430 5428 5426 5423 5421 5419 5417 5415 5413 5410 5408 5407 5406 5404 5402 5400 5398 5397 5396 5394 5393 5392 5391
5455 5453 5451 5449 5446 5444 5441 5438 5436 5433 5430 5428 5425 5423 5420 5417 5415 5413 5411 5409 5407 5405 5403 5401 5399 5397 5395 5394 5393 5392 5389 5387 5387 5386 5385 5384 5383 5382
5441 5439 5437 5435 5433 5430 5428 5425 5423 5420 5418 5416 5413 5411 5408 5406 5404 5402 5400 5398 5396 5394 5392 5391 5388 5386 5384 5383 5382 5381 5379 5378 5377 5376 5375 5375 5374 5374
5427 5426 5424 5422 5420 5417 5415 5413 5411 5408 5406 5404 5402 5399 5397 5395 5393 5391 5389 5387 5385 5383 5382 5380 5378 5376 5375 5373 5372 5371 5370 5369 5368 5368 5367 5367 5366 5366
5415 5413 5411 5409 5407 5405 5403 5402 5400 5397 5395 5393 5391 5389 5387 5385 5383 5381 5379 5377 5375 5373 5372 5370 5368 5367 5365 5364 5363 5362 5362 5361 5360 5360 5360 5359 5358 5358
Wind_Speed
42 43 44 45 46 47 47 46 46 46 46 47 48 49 49 49 49 50 51 52 52 53 53 53 53 52 52 52 52 52 52 52 51 51 51 51 51 50
43 44 45 47 48 49 49 48 48 49 49 49 50 51 51 51 51 52 52 52 53 53 53 53 52 52 53 53 53 53 53 53 53 52 52 52 51 51
46 47 48 49 50 50 50 50 51 52 52 51 52 52 52 52 52 52 53 53 53 53 53 53 54 54 54 54 54 54 54 54 54 53 53 52 52 52
47 48 49 50 51 51 52 52 53 54 54 54 54 54 54 53 53 53 54 54 54 54 54 54 55 55 55 55 55 55 54 54 54 53 53 53 53 52
48 48 49 50 51 52 53 53 54 55 55 55 54 54 54 54 54 54 55 55 55 55 55 55 55 55 55 55 55 54 54 54 54 53 53 53 53 52
48 49 50 51 51 52 52 53 54 54 54 54 54 54 54 54 55 55 56 56 56 56 56 56 56 56 56 55 55 54 54 54 53 53 53 52 52 51
51 51 51 51 51 52 52 53 53 54 54 55 54 54 54 54 55 56 56 56 56 56 57 57 57 56 56 55 54 54 54 53 53 53 53 52 52 51
51 51 51 51 52 52 52 53 54 54 55 55 56 56 55 56 56 56 56 57 56 57 57 57 57 56 56 55 54 54 54 53 53 53 52 51 51 51
52 52 52 52 52 52 53 53 54 55 56 56 56 56 56 57 57 57 57 57 57 56 56 56 56 55 54 54 54 54 54 53 53 52 51 50 50 49
53 53 53 53 54 54 54 55 55 56 57 57 57 57 57 57 57 57 57 56 55 55 55 55 54 54 53 54 54 54 54 53 52 52 51 49 48 48
52 53 53 54 54 55 56 56 56 56 56 56 56 56 56 56 56 56 55 55 55 54 54 54 53 53 53 53 53 53 53 52 51 50 49 49 48 47
52 53 54 54 55 56 56 56 55 55 55 55 55 55 55 55 55 54 54 54 54 53 53 53 53 53 52 52 52 52 52 51 50 49 48 48 47 47
53 53 54 55 55 55 55 55 54 55 55 55 55 55 54 54 53 53 53 53 53 53 52 52 52 52 52 51 51 51 51 50 49 48 47 47 46 46
53 54 54 54 55 55 54 54 54 54 54 54 54 54 53 53 53 53 53 53 52 52 51 51 51 52 51 50 50 49 49 48 47 46 46 45 44 44
53 54 54 54 54 54 53 53 54 53 53 53 53 53 53 52 52 52 53 52 51 51 51 51 51 50 50 49 48 47 47 46 45 45 45 44 43 43
53 53 53 52 52 52 52 52 52 52 52 52 52 51 51 50 51 51 52 51 50 50 50 50 49 49 48 47 46 45 44 43 43 43 42 42 42 41
51 51 51 51 50 50 50 50 51 51 51 50 50 49 49 49 49 49 49 49 48 48 47 47 46 46 45 44 43 43 42 42 41 41 40 39 38 37
51 50 50 49 49 49 49 49 49 49 49 49 49 48 48 48 47 47 47 46 45 45 44 43 43 43 42 41 41 40 40 40 39 38 37 36 35 34
50 49 48 47 48 48 48 48 48 47 47 47 46 46 46 45 45 44 44 43 42 41 40 40 40 40 40 39 38 38 38 37 36 35 34 33 32 31
48 47 46 46 46 46 46 46 46 45 44 44 43 43 43 42 41 41 40 40 39 38 38 38 38 38 38 37 36 36 35 34 33 32 31 30 29 29
45 44 44 44 44 44 44 43 42 42 41 40 40 40 39 38 38 37 37 37 37 37 37 36 36 36 36 35 34 33 32 31 31 30 29 28 28 27
42 41 41 42 42 41 41 40 39 38 38 38 38 37 36 36 35 35 35 35 35 35 35 35 34 34 33 32 31 30 29 29 28 28 27 27 26 25
40 39 39 40 39 39 38 38 38 37 37 37 35 35 34 34 33 33 33 33 33 33 33 32 32 31 30 29 28 27 27 27 26 25 25 25 24 23
Wind_Direction
273 274 274 275 276 277 278 278 278 278 278 279 279 280 281 281 282 282 283 284 285 285 284 285 285 286 286 287 287 287 287 287 287 287 286 286 286 286
274 275 275 276 277 278 278 278 279 280 280 281 281 281 281 281 282 283 284 284 285 285 284 284 285 286 287 287 287 287 287 287 287 287 287 286 286 285
275 276 277 277 277 277 278 278 279 280 281 281 282 281 281 282 282 283 283 283 284 284 285 285 286 286 287 287 287 287 287 287 287 287 286 286 285 284
277 278 278 278 278 278 278 279 279 280 281 281 282 282 282 282 282 282 282 283 283 284 285 285 286 286 286 287 287 288 288 287 287 286 286 285 285 284
277 278 278 278 278 278 279 279 280 280 280 281 281 281 282 282 282 282 282 283 283 284 284 285 286 286 287 287 288 288 288 287 287 286 286 285 285 284
277 278 278 278 278 279 279 280 280 280 280 280 280 280 281 282 282 282 282 283 283 284 285 285 286 287 287 287 287 287 287 287 286 286 285 284 284 283
277 278 278 279 279 279 280 280 280 280 280 280 280 280 281 282 282 282 283 283 284 284 284 285 286 286 287 287 287 287 287 287 286 286 285 285 284 283
277 277 278 279 280 280 280 281 281 281 281 281 281 281 281 282 282 283 284 283 283 284 284 285 286 286 286 286 286 286 286 286 286 286 285 284 284 283
277 278 278 279 280 280 280 281 282 283 282 282 282 282 282 282 283 284 284 283 283 283 283 285 285 285 285 285 286 286 285 285 286 285 285 284 284 283
278 278 279 279 280 280 280 281 282 283 282 282 282 282 282 283 283 283 283 283 283 283 283 283 284 285 285 285 286 285 285 285 285 284 284 284 283 282
278 279 280 281 281 282 282 282 282 283 283 283 283 283 283 284 284 284 283 283 283 282 282 283 283 284 284 285 285 285 284 284 284 284 284 283 282 283
279 279 280 280 281 282 282 283 283 283 283 283 284 284 284 284 284 284 284 284 283 283 282 282 282 283 284 284 284 284 285 284 284 284 283 282 283 283
279 279 280 281 281 282 282 282 282 282 283 283 284 284 284 284 283 283 283 284 283 283 282 281 282 283 284 284 283 284 283 283 283 283 282 282 282 282
279 280 281 281 281 282 282 282 282 283 283 283 283 283 283 283 282 282 283 284 283 283 282 282 282 283 284 283 283 282 282 283 283 283 283 282 282 282
280 280 281 281 281 281 282 282 283 283 284 283 283 283 283 282 282 282 282 283 283 282 282 283 283 283 283 283 283 282 282 283 283 283 282 282 282 282
281 281 282 282 281 282 282 282 282 283 284 283 283 282 282 282 282 282 282 282 282 283 283 283 283 283 283 282 283 282 282 282 283 283 283 282 282 282
281 282 282 281 281 281 281 282 283 283 284 283 283 282 282 281 281 282 282 281 282 282 282 282 282 282 282 282 282 282 282 282 283 283 283 283 282 282
281 281 281 280 280 281 282 283 283 284 284 284 283 283 283 282 282 282 282 282 282 282 282 282 282 282 282 282 282 282 282 282 282 282 282 282 282 281
280 280 280 281 282 282 283 283 284 284 284 284 283 283 283 283 282 281 281 281 281 281 281 281 282 283 283 282 282 282 282 282 282 281 281 281 280 280
280 281 281 281 282 283 283 284 284 283 283 283 283 284 284 283 283 282 281 281 281 280 280 280 282 283 282 282 282 282 281 281 281 280 279 279 279 279
280 280 281 282 282 282 283 283 283 282 282 282 283 284 284 284 283 282 282 281 281 280 281 281 282 282 282 282 282 281 279 279 279 279 278 277 277 277
280 280 281 281 282 282 281 282 282 282 282 283 283 283 284 284 283 283 283 283 282 283 282 282 282 282 281 281 280 279 277 277 277 276 276 276 275 274
279 280 280 281 281 281 281 281 282 283 283 283 283 283 284 284 284 285 285 285 285 285 284 283 282 281 280 279 277 276 276 276 275 275 274 275 274 273